This demonstration page uses our WeatherBlox Daily Observations layout. Learn more.

38.88101, -77.10428

Hourly Observations for March 24, 2018

Temp ( °F °C ) Dew Point ( °F °C ) Humidity (%) Winds ( mph kmh ) Pressure ( in mb ) Visibility ( mi km ) Precip ( " mm )
12:52 am 00:52 Clear 39 3.9 20 -6.7 46 46 NNW 16 26 30.21 1023 10 16.0934 0 0
1:52 am 01:52 Clear 37 2.8 21 -6.1 52 52 NW 13 20 30.21 1023 10 16.0934 0 0
2:52 am 02:52 Clear 36 2.2 20 -6.7 52 52 NNW 9 15 30.22 1023 10 16.0934 0 0
3:52 am 03:52 Clear 35 1.7 20 -6.7 54 54 NNW 8 13 30.2 1023 10 16.0934 0 0
4:52 am 04:52 Clear 34 1.1 20 -6.7 56 56 NNW 7 11 30.21 1023 10 16.0934 0 0
5:52 am 05:52 Clear 36 2.2 20 -6.7 52 52 NW 12 19 30.22 1023 10 16.0934 0 0
6:52 am 06:52 Clear 35 1.7 20 -6.7 54 54 NW 8 13 30.22 1024 10 16.0934 0 0
7:52 am 07:52 Partly Cloudy 36 2.2 20 -6.7 52 52 NW 10 17 30.24 1024 10 16.0934 0 0
8:52 am 08:52 Partly Cloudy 39 3.9 21 -6.1 48 48 NW 12 19 30.25 1024 10 16.0934 0 0
9:52 am 09:52 Mostly Cloudy 42 5.6 22 -5.6 45 45 N 9 15 30.25 1025 10 16.0934 0 0
10:52 am 10:52 Mostly Cloudy 43 6.1 23 -5 45 45 NNW 9 15 30.24 1024 10 16.0934 0 0
11:52 am 11:52 Mostly Cloudy 46 7.8 23 -5 40 40 NW 3 6 30.22 1024 10 16.0934 0 0
12:52 pm 12:52 Partly Cloudy 48 8.9 22 -5.6 36 36 VRB 6 9 30.2 1023 10 16.0934 0 0
1:52 pm 13:52 Partly Cloudy 51 10.6 21 -6.1 31 31 N 13 20 30.17 1022 10 16.0934 0 0
2:52 pm 14:52 Mostly Cloudy 50 10 19 -7.2 29 29 ENE 3 6 30.14 1021 10 16.0934 0 0
3:52 pm 15:52 Mostly Cloudy 51 10.6 18 -7.8 27 27 VRB 5 7 30.11 1020 10 16.0934 0 0
4:52 pm 16:52 Mostly Cloudy 50 10 21 -6.1 32 32 N 10 17 30.11 1020 10 16.0934 0 0
5:52 pm 17:52 Mostly Cloudy 49 9.4 19 -7.2 31 31 W 7 11 30.1 1019 10 16.0934 0 0
6:52 pm 18:52 Cloudy 47 8.3 18 -7.8 31 31 NNW 9 15 30.1 1019 10 16.0934 0 0
7:52 pm 19:52 Cloudy 46 7.8 19 -7.2 34 34 N 9 15 30.11 1020 10 16.0934 0 0
8:52 pm 20:52 Cloudy 45 7.2 19 -7.2 35 35 NNW 7 11 30.14 1021 10 16.0934 0 0
9:52 pm 21:52 Cloudy 46 7.8 17 -8.3 31 31 Calm 30.13 1020 10 16.0934 0 0
10:52 pm 22:52 Cloudy 44 6.7 26 -3.3 49 49 ESE 3 6 30.13 1020 10 16.0934 0 0
11:52 pm 23:52 Cloudy 43 6.1 23 -5 45 45 S 3 6 30.15 1021 10 16.0934 0 0

Powered by AerisWeather